Regional Weather Roundup
Issued by NWS Charleston, WV

Home | Current Version | Previous Version | Graphics & Text | Print | Product List | Glossary On
Versions: 1 2 3 4 5 6 7 8 9 10 11 12 13 14 15 16 17 18 19 20 21 22 23 24 25 26 27 28
000
ASUS41 KRLX 160810
RWRRLX
West Virginia Regional Weather Roundup
National Weather Service Charleston WV
400 AM EDT WED AUG 16 2017

Note: "fair" indicates few or no clouds below 12,000 feet with no
significant weather and/or obstructions to visibility.

WVZ003-160900-
Northern Panhandle of West Virginia

CITY           SKY/WX    TMP DP  RH WIND       PRES   REMARKS
WHEELING       MOCLDY    65  64  97 CALM      30.02S FOG
$$

WVZ009-160900-
Northwest West Virginia

CITY           SKY/WX    TMP DP  RH WIND       PRES   REMARKS
PARKERSBURG    CLEAR     66  65  96 S7        30.03S FOG
$$

WVZ006-160900-
Western West Virginia

CITY           SKY/WX    TMP DP  RH WIND       PRES   REMARKS
HUNTINGTON     FOG       69  68  96 CALM      30.00R VSB 1/4
$$

WVZ015-160900-
West Central West Virginia

CITY           SKY/WX    TMP DP  RH WIND       PRES   REMARKS
CHARLESTON     FOG       69  67  93 CALM      30.01S VSB 1
$$

WVZ022-031-160900-
North Central West Virginia

CITY           SKY/WX    TMP DP  RH WIND       PRES   REMARKS
CLARKSBURG     MOCLDY    68  66  93 CALM      30.02S FOG
MORGANTOWN     CLEAR     67  65  93 S3        30.03R FOG
$$

WVZ025-035-042-045-160900-
Southern West Virginia

CITY           SKY/WX    TMP DP  RH WIND       PRES   REMARKS
BECKLEY        FOG       64  64 100 CALM      30.09R VSB 1/4
LOGAN          FOG       70  70 100 CALM      30.04S VSB<1/4
BLUEFIELD      FOG       64  63  96 SW5       30.11S VSB 1/2
LEWISBURG      FOG       61  61  99 CALM      30.08S VSB<1/4
$$

WVZ047-160900-
Northern Mountains of West Virginia

CITY           SKY/WX    TMP DP  RH WIND       PRES   REMARKS
ELKINS         FOG       62  60  93 CALM      30.07S VSB 1/4
$$

WVZ052-160900-
Eastern Panhandle of West Virginia

CITY           SKY/WX    TMP DP  RH WIND       PRES   REMARKS
MARTINSBURG    FOG       67  66  97 CALM      29.96R VSB 3/4
PETERSBURG     FOG       67  67  99 CALM      30.01S VSB<1/4
$$




USA.gov is the U.S. government's official web portal to all federal, state and local government web resources and services.